TimeEST,TemperatureF,Dew PointF,Humidity,Sea Level PressureIn,VisibilityMPH,Wind Direction,Wind SpeedMPH,Gust SpeedMPH,PrecipitationIn,Events,Conditions,WindDirDegrees,DateUTC
12:00 AM,-0.4,-13.0,55,29.96,25.0,NW,6.9,-,N/A,,Clear,320,2013-02-05 05:00:00
1:00 AM,-2.2,-13.0,60,29.99,25.0,West,3.5,-,N/A,,Clear,280,2013-02-05 06:00:00
2:00 AM,-5.8,-16.6,60,30.01,25.0,Calm,Calm,-,N/A,,Clear,0,2013-02-05 07:00:00
3:00 AM,-7.6,-16.6,65,30.01,25.0,WSW,3.5,-,N/A,,Clear,250,2013-02-05 08:00:00
4:00 AM,-11.2,-18.4,70,30.02,25.0,SW,3.5,-,N/A,,Clear,220,2013-02-05 09:00:00
5:00 AM,-11.2,-16.6,77,30.03,25.0,Calm,Calm,-,N/A,,Clear,0,2013-02-05 10:00:00
6:00 AM,-11.2,-18.4,70,30.04,25.0,Calm,Calm,-,N/A,,Clear,0,2013-02-05 11:00:00
7:00 AM,-13.0,-18.4,77,30.05,45.0,Calm,Calm,-,N/A,,Partly Cloudy,0,2013-02-05 12:00:00
8:00 AM,-11.2,-16.6,77,30.06,25.0,Calm,Calm,-,N/A,,Partly Cloudy,0,2013-02-05 13:00:00
9:00 AM,-9.4,-16.6,71,30.06,25.0,Calm,Calm,-,N/A,,Partly Cloudy,0,2013-02-05 14:00:00
10:00 AM,-4.0,-13.0,65,30.07,25.0,Calm,Calm,-,N/A,,Partly Cloudy,0,2013-02-05 15:00:00
11:00 AM,3.2,-9.4,56,30.07,45.0,SE,2.3,-,N/A,,Scattered Clouds,130,2013-02-05 16:00:00
12:00 PM,5.0,-9.4,52,30.05,40.0,Variable,2.3,-,N/A,,Partly Cloudy,0,2013-02-05 17:00:00
1:00 PM,6.8,-7.6,52,30.03,45.0,West,3.5,-,N/A,,Mostly Cloudy,270,2013-02-05 18:00:00
2:00 PM,8.6,-9.4,44,30.02,45.0,West,4.6,-,N/A,,Mostly Cloudy,270,2013-02-05 19:00:00
3:00 PM,8.6,-9.4,44,30.01,45.0,WNW,4.6,-,N/A,,Overcast,290,2013-02-05 20:00:00
4:00 PM,8.6,-7.6,48,30.00,25.0,Calm,Calm,-,N/A,,Mostly Cloudy,0,2013-02-05 21:00:00
5:00 PM,8.6,-7.6,48,29.98,25.0,Calm,Calm,-,N/A,,Overcast,0,2013-02-05 22:00:00
6:00 PM,8.6,-5.8,52,29.99,25.0,Calm,Calm,-,N/A,,Overcast,0,2013-02-05 23:00:00
7:00 PM,8.6,-4.0,57,29.97,25.0,North,4.6,-,N/A,,Overcast,360,2013-02-06 00:00:00
8:00 PM,8.6,-4.0,57,29.96,25.0,NE,2.3,-,N/A,,Overcast,40,2013-02-06 01:00:00
9:00 PM,8.6,-4.0,57,29.96,25.0,NE,3.5,-,N/A,Snow,Light Snow,40,2013-02-06 02:00:00
10:00 PM,8.6,-2.2,62,29.95,25.0,NE,4.6,-,N/A,Snow,Light Snow,50,2013-02-06 03:00:00
11:00 PM,8.6,-0.4,67,29.92,25.0,NNE,4.6,-,N/A,Snow,Light Snow,20,2013-02-06 04:00:00